Temperature
-1 -1 -1 -1 -1 -1 -2 -2 -2 -1 -1 -1 -1 -1 -1 -1 -0 -0 -0 -0 -0 0 0 0 0 1 1 1 1 1 1 1 1 2 2 2 2 3 3 3 3 3 4
-2 -2 -2 -2 -2 -2 -2 -2 -2 -2 -2 -2 -2 -1 -1 -1 -1 -1 -1 -1 -1 -1 -1 -0 -0 0 0 1 1 1 1 1 1 1 1 2 2 2 2 2 3 3 3
-3 -2 -2 -3 -3 -3 -3 -3 -3 -3 -3 -2 -2 -2 -2 -2 -2 -2 -2 -2 -2 -1 -1 -1 -1 -1 -0 0 0 0 1 1 1 1 1 1 1 2 2 2 2 2 2
-3 -3 -3 -3 -3 -3 -4 -4 -4 -4 -3 -3 -3 -3 -3 -3 -3 -3 -2 -2 -2 -2 -2 -2 -1 -1 -1 -0 -0 -0 0 0 0 0 0 0 1 1 1 1 2 2 2
-4 -4 -4 -4 -4 -4 -4 -4 -4 -4 -4 -4 -4 -4 -3 -3 -3 -3 -3 -3 -3 -2 -2 -2 -2 -2 -1 -1 -1 -1 -1 -0 -0 -0 -0 -0 -0 0 0 0 1 1 1
-4 -4 -4 -4 -4 -5 -5 -5 -5 -5 -5 -5 -4 -4 -4 -4 -3 -3 -3 -3 -3 -3 -3 -3 -2 -2 -2 -2 -1 -1 -1 -1 -1 -1 -1 -1 -0 -0 -0 -0 -0 -0 0
-5 -5 -5 -5 -5 -5 -5 -5 -5 -5 -5 -5 -5 -5 -4 -4 -4 -4 -4 -4 -4 -3 -3 -3 -3 -3 -3 -2 -2 -2 -2 -1 -1 -1 -1 -1 -1 -0 -1 -1 -1 -1 -0
-5 -5 -5 -5 -6 -6 -6 -6 -6 -6 -6 -6 -5 -5 -5 -4 -4 -4 -4 -4 -4 -4 -4 -3 -3 -3 -3 -3 -3 -2 -2 -2 -1 -1 -1 -1 -1 -1 -1 -1 -1 -1 -1
-6 -6 -6 -6 -6 -6 -6 -6 -6 -6 -6 -6 -6 -6 -6 -5 -5 -5 -5 -5 -5 -4 -4 -4 -4 -3 -3 -3 -3 -3 -3 -2 -2 -2 -1 -1 -1 -1 -1 -1 -1 -2 -2
-6 -6 -7 -7 -7 -7 -6 -6 -6 -7 -6 -6 -6 -6 -6 -6 -5 -5 -6 -6 -5 -5 -5 -4 -4 -4 -3 -3 -3 -3 -3 -3 -2 -2 -2 -2 -2 -2 -2 -2 -2 -2 -2
-7 -7 -7 -7 -7 -7 -7 -7 -7 -7 -7 -7 -7 -6 -6 -6 -6 -6 -6 -6 -6 -5 -5 -5 -4 -4 -4 -4 -4 -4 -3 -3 -3 -3 -2 -2 -2 -2 -2 -2 -2 -2 -2
-7 -7 -7 -7 -7 -7 -7 -7 -7 -7 -7 -7 -7 -7 -7 -6 -6 -6 -6 -6 -6 -6 -5 -5 -5 -5 -4 -4 -4 -4 -4 -4 -3 -3 -3 -3 -3 -3 -3 -3 -3 -3 -3
-8 -8 -8 -8 -8 -8 -8 -8 -8 -8 -8 -8 -8 -7 -7 -7 -7 -6 -6 -6 -6 -6 -6 -5 -5 -5 -5 -4 -4 -4 -4 -4 -4 -4 -4 -3 -3 -3 -3 -3 -3 -3 -4
-8 -8 -8 -8 -8 -8 -8 -8 -8 -8 -8 -8 -8 -8 -8 -7 -7 -7 -7 -6 -6 -6 -6 -6 -6 -5 -5 -5 -5 -5 -5 -5 -5 -4 -4 -4 -4 -4 -4 -4 -4 -4 -4
-9 -9 -9 -9 -8 -8 -8 -8 -9 -8 -8 -8 -8 -8 -8 -8 -7 -7 -7 -7 -7 -7 -6 -6 -6 -6 -6 -6 -6 -5 -5 -5 -5 -5 -5 -5 -5 -5 -5 -5 -5 -5 -5
-9 -9 -9 -9 -9 -9 -9 -9 -9 -9 -8 -8 -8 -8 -8 -8 -8 -7 -7 -7 -7 -7 -7 -7 -7 -6 -6 -6 -6 -6 -6 -6 -6 -6 -6 -6 -6 -6 -6 -5 -5 -5 -5
-10 -10 -10 -10 -10 -10 -9 -9 -9 -9 -8 -8 -8 -8 -8 -8 -8 -8 -8 -8 -7 -7 -7 -7 -7 -7 -7 -7 -7 -7 -7 -6 -6 -6 -6 -6 -6 -6 -6 -6 -6 -6 -6
-10 -10 -10 -10 -10 -10 -10 -10 -10 -10 -9 -9 -8 -8 -8 -8 -8 -8 -8 -8 -8 -8 -8 -8 -8 -8 -7 -7 -7 -7 -7 -7 -7 -7 -6 -6 -6 -6 -6 -6 -6 -6 -6
-10 -10 -11 -11 -11 -10 -10 -10 -10 -10 -10 -10 -9 -9 -9 -9 -9 -8 -8 -8 -8 -8 -8 -8 -8 -8 -8 -8 -8 -8 -7 -7 -7 -7 -7 -7 -7 -7 -7 -7 -7 -6 -6
-11 -11 -11 -11 -11 -11 -11 -11 -11 -11 -10 -10 -10 -10 -9 -9 -9 -9 -9 -9 -9 -9 -9 -9 -8 -8 -8 -8 -8 -8 -8 -7 -7 -7 -7 -7 -7 -7 -7 -7 -7 -7 -7
-11 -11 -11 -11 -11 -11 -11 -11 -11 -11 -11 -11 -11 -10 -10 -10 -10 -10 -10 -9 -9 -9 -9 -9 -9 -9 -9 -8 -8 -8 -8 -8 -8 -8 -7 -7 -7 -8 -8 -7 -7 -7 -7
-12 -12 -12 -12 -12 -12 -12 -12 -12 -12 -12 -11 -11 -11 -11 -11 -10 -10 -10 -10 -10 -10 -9 -9 -9 -9 -9 -9 -9 -9 -8 -8 -8 -8 -8 -8 -8 -8 -8 -8 -8 -7 -7
-12 -12 -12 -12 -12 -12 -12 -12 -12 -12 -12 -12 -12 -11 -11 -11 -11 -11 -11 -10 -10 -10 -10 -10 -9 -9 -9 -9 -9 -9 -9 -9 -8 -8 -8 -8 -8 -8 -8 -8 -8 -8 -8
-12 -12 -12 -12 -12 -12 -12 -12 -12 -12 -12 -12 -12 -12 -12 -12 -11 -11 -11 -11 -10 -10 -10 -10 -10 -10 -10 -9 -9 -9 -9 -9 -9 -8 -8 -8 -8 -8 -8 -8 -8 -8 -8
-13 -13 -13 -13 -13 -13 -13 -13 -13 -13 -13 -13 -13 -12 -12 -12 -12 -12 -11 -11 -11 -11 -11 -10 -10 -10 -10 -10 -10 -9 -9 -9 -9 -9 -9 -9 -8 -8 -8 -8 -8 -8 -8
-13 -13 -13 -13 -13 -13 -13 -13 -13 -13 -13 -13 -13 -13 -13 -13 -12 -12 -12 -12 -12 -11 -11 -11 -11 -11 -10 -10 -10 -10 -10 -10 -9 -9 -9 -9 -9 -9 -9 -9 -9 -9 -9
Wind_Speed
3 3 3 3 4 4 4 5 5 6 6 5 5 5 5 5 5 4 5 5 5 5 5 5 6 5 4 4 3 4 4 4 7 6 4 3 4 4 5 7 7 8 8
3 3 4 4 4 4 5 6 6 6 6 6 6 6 6 6 5 5 6 6 6 6 6 6 6 5 5 5 4 5 5 5 6 8 5 4 5 5 5 5 6 7 7
3 4 4 4 4 5 5 5 6 6 6 6 6 6 6 6 6 6 6 7 7 7 6 6 7 6 7 5 5 5 5 5 4 5 6 4 4 4 4 4 5 5 6
4 4 5 5 5 5 5 6 6 6 6 6 7 7 7 7 7 7 7 7 7 7 7 7 7 7 8 7 6 7 5 5 4 4 5 4 4 3 3 4 4 3 4
4 5 5 5 5 5 5 6 6 6 6 7 7 7 7 7 7 7 7 7 7 7 7 7 8 9 10 8 7 6 6 5 5 5 5 5 4 4 4 4 5 4 4
5 6 6 5 5 5 5 5 6 6 6 6 7 8 8 8 9 10 8 7 8 8 8 8 8 9 10 11 11 10 8 7 7 6 5 6 6 5 5 5 5 5 5
5 6 5 5 6 6 6 6 6 6 6 7 8 8 9 9 11 11 10 8 8 8 8 8 7 8 9 8 9 10 10 11 11 9 8 8 7 7 6 7 7 7 7
5 6 6 6 6 6 6 7 7 6 6 7 8 8 9 10 11 11 11 8 8 9 9 9 9 8 8 8 7 8 9 9 10 9 9 9 8 7 8 8 8 7 6
6 6 6 6 7 7 7 7 7 6 7 7 8 8 9 10 11 11 10 7 7 9 9 9 9 9 11 10 8 8 9 9 11 12 12 12 12 12 9 5 5 6 7
6 7 7 7 7 8 8 8 7 7 8 8 8 8 9 10 12 12 11 7 8 8 8 8 10 11 11 11 9 8 10 9 7 8 8 8 8 9 11 9 7 7 6
6 6 7 7 7 8 8 7 7 7 7 7 9 9 9 10 11 12 12 7 8 8 7 7 8 11 12 12 11 9 11 9 7 7 7 6 5 6 7 8 8 7 7
6 6 7 7 7 6 7 7 7 7 7 7 8 8 7 8 10 11 13 13 11 9 8 7 8 11 12 13 11 11 11 8 6 6 6 6 5 5 5 6 7 8 9
6 7 7 7 6 6 7 7 6 6 6 7 7 7 7 6 7 11 13 14 14 10 8 11 11 11 11 9 10 10 7 5 5 6 7 7 5 5 4 4 4 5 6
6 7 6 6 6 6 5 5 6 6 6 7 7 7 7 6 6 6 6 7 10 9 8 9 10 10 8 8 7 6 5 5 6 7 6 5 4 4 5 4 4 4 5
6 6 6 6 6 5 5 5 6 7 8 8 7 6 7 7 8 10 7 6 6 7 5 4 4 4 4 4 5 5 4 5 6 5 5 5 5 5 5 4 4 4 6
5 6 5 5 5 4 4 5 7 8 10 11 11 9 8 10 12 12 12 11 9 7 5 5 5 5 5 5 5 5 5 5 5 5 5 6 6 6 5 4 4 5 6
5 6 5 5 5 5 5 5 6 6 8 9 10 10 10 11 11 10 10 9 8 7 4 5 5 5 5 5 5 5 6 5 5 5 6 6 6 5 5 5 5 5 6
6 6 6 4 4 5 5 5 5 5 6 6 7 10 10 10 10 9 8 6 5 5 4 5 5 5 5 5 5 5 5 5 5 5 6 6 6 6 6 6 6 6 6
5 5 5 5 4 5 5 5 5 5 5 5 5 6 8 8 8 7 5 4 4 4 4 4 5 5 5 5 5 5 5 5 6 5 6 6 6 6 6 6 6 8 7
5 8 7 5 4 4 4 4 4 5 5 5 5 5 5 5 4 4 3 3 3 4 4 5 5 5 5 5 5 5 5 5 6 6 6 6 6 6 7 7 7 7 7
5 6 8 6 4 5 4 5 4 4 5 5 5 7 8 4 3 4 3 3 3 4 4 5 5 5 5 5 5 5 6 5 5 5 5 6 6 6 6 6 6 7 6
4 4 5 5 5 5 5 4 4 4 5 5 5 7 10 5 4 4 4 4 4 3 3 4 4 4 4 5 5 5 5 5 6 5 5 5 5 6 6 6 6 6 6
4 5 5 5 5 7 6 5 4 5 5 5 5 5 5 4 4 4 4 4 4 4 3 3 3 4 4 5 5 5 6 6 6 6 6 6 5 5 6 6 7 6 6
4 5 5 5 5 5 5 5 5 5 5 5 5 5 5 5 5 5 5 5 4 4 4 4 4 4 6 6 6 6 7 7 8 8 8 7 6 6 5 5 6 6 6
4 4 5 5 5 5 5 5 5 5 6 6 5 5 5 5 5 5 5 5 5 5 5 5 5 5 6 7 7 7 9 10 9 8 7 5 5 5 5 5 5 5 6
4 5 5 5 5 5 5 5 5 6 5 6 5 5 5 5 5 5 5 5 5 5 5 5 6 7 8 7 8 9 10 9 10 9 6 4 4 4 5 4 5 5 6
Wind_Direction
272 273 274 274 275 259 250 253 258 265 266 260 262 265 266 265 262 256 267 256 246 254 258 258 266 269 261 256 249 243 245 245 254 267 264 262 251 259 277 273 269 266 268
278 272 266 269 274 271 263 258 260 260 264 260 260 260 262 262 257 254 263 260 247 251 255 258 264 269 265 257 245 247 248 251 254 263 270 260 255 251 255 257 269 267 265
280 271 268 266 267 268 270 271 269 262 262 262 259 255 258 259 259 255 258 260 248 246 249 253 258 261 264 261 252 250 252 260 262 255 262 263 266 255 255 261 263 265 266
275 268 267 266 266 267 271 269 267 266 257 253 256 256 256 257 256 253 257 260 249 248 249 251 253 253 259 258 255 248 252 253 251 248 258 262 266 248 237 256 272 258 258
269 266 265 267 267 268 270 270 270 267 263 253 253 255 256 254 251 249 251 258 253 253 254 254 256 256 259 258 257 250 244 237 236 241 247 254 256 244 243 248 266 269 262
264 266 269 269 269 268 268 270 272 269 268 258 250 251 254 256 257 256 254 258 257 252 254 258 259 257 263 265 266 264 256 242 239 240 248 248 249 245 248 250 259 267 269
267 270 270 268 270 271 272 273 270 268 268 266 257 250 253 256 259 258 258 263 258 250 249 254 261 263 266 262 267 269 263 256 247 244 245 245 246 240 239 245 245 251 264
269 269 271 271 272 273 269 266 265 267 263 263 264 255 255 260 261 259 260 261 260 253 247 247 252 257 259 257 259 261 258 252 248 244 242 241 242 238 230 238 244 262 273
273 272 270 267 267 269 266 264 264 264 264 262 262 260 256 260 261 260 260 256 259 258 255 250 247 252 261 262 259 259 265 264 263 257 253 251 250 248 243 239 240 248 267
275 275 272 265 261 263 263 265 264 261 260 262 264 260 257 259 261 261 257 252 259 260 258 255 254 257 261 258 251 252 258 263 265 265 263 258 252 246 240 230 230 237 258
284 282 276 268 264 263 263 262 261 261 262 261 263 263 257 258 261 258 256 249 252 256 256 256 256 263 265 260 257 254 260 266 262 258 257 255 247 238 232 233 232 229 238
289 287 282 276 271 268 261 262 258 255 258 260 262 266 261 259 260 258 257 256 256 253 254 255 258 264 265 265 261 262 268 269 260 256 254 254 251 247 242 236 239 241 244
297 292 289 285 278 272 262 258 258 251 251 256 257 262 266 262 258 263 262 259 258 254 255 259 265 267 268 267 267 270 268 257 252 253 250 253 251 245 242 246 248 245 254
296 298 296 292 288 282 272 254 252 250 251 254 255 259 266 269 264 261 260 266 262 261 261 265 267 268 266 267 269 265 256 249 249 252 253 255 252 248 243 239 244 243 257
298 301 302 299 294 287 283 266 259 252 249 253 254 256 259 264 266 269 266 260 255 255 257 254 254 260 259 260 259 256 255 254 256 252 250 250 250 252 257 251 245 251 256
305 309 307 305 302 295 291 293 285 275 273 269 267 268 267 270 280 271 269 269 267 258 252 245 248 250 253 256 258 260 257 253 253 249 245 246 247 246 252 254 246 246 251
302 306 306 304 303 301 294 294 300 305 295 286 280 279 278 284 285 277 273 271 266 261 248 245 252 254 254 253 254 255 257 258 253 246 244 243 247 248 245 247 245 248 252
307 308 309 303 303 303 303 301 298 300 307 307 302 296 296 295 294 288 280 276 267 262 252 250 251 254 256 256 255 256 257 257 252 248 244 242 239 242 244 246 245 244 249
312 312 312 311 308 307 308 307 304 301 300 302 309 313 312 312 309 297 291 262 252 257 261 262 257 255 257 258 259 256 252 250 252 251 245 241 238 238 242 244 245 248 250
315 317 321 317 315 314 313 310 310 311 311 311 310 311 318 320 314 310 297 277 262 261 258 259 260 258 255 254 255 256 257 254 251 250 247 241 238 237 241 244 245 245 246
313 318 326 325 320 317 315 312 312 312 313 313 311 314 318 312 301 298 296 281 267 266 263 260 260 261 258 253 252 251 252 256 253 251 247 243 240 242 244 245 244 244 246
316 319 323 321 320 318 316 316 315 313 315 315 317 321 327 331 323 314 311 308 294 277 268 265 267 264 257 254 252 251 253 257 257 254 252 250 244 243 246 245 244 244 242
327 327 327 326 324 324 327 326 323 322 320 320 320 324 329 331 328 324 320 316 311 305 295 279 274 277 272 264 257 250 250 251 253 252 252 250 247 247 246 244 241 241 238
331 330 327 326 326 326 324 326 327 326 325 325 326 328 330 330 328 327 326 323 320 316 309 299 289 286 288 286 280 274 268 266 261 253 248 243 244 246 246 245 243 238 236
336 332 328 324 324 325 326 327 329 330 330 330 330 331 331 331 331 331 330 331 328 324 323 316 305 300 297 295 293 290 292 292 287 276 261 247 244 246 247 244 242 240 240
336 333 329 326 327 327 327 327 329 331 331 331 331 330 330 330 329 332 332 333 332 327 324 318 315 312 308 305 305 309 311 310 307 301 285 255 251 253 249 246 241 240 240
Height
1483 1483 1483 1484 1484 1484 1484 1484 1484 1484 1484 1484 1484 1484 1484 1484 1484 1485 1485 1485 1485 1486 1487 1487 1488 1489 1489 1489 1490 1491 1491 1491 1489 1487 1489 1490 1491 1492 1493 1494 1494 1494 1495
1479 1479 1479 1479 1479 1478 1478 1479 1479 1479 1479 1478 1478 1478 1478 1478 1479 1479 1479 1479 1479 1480 1481 1482 1482 1483 1483 1484 1484 1484 1485 1485 1484 1482 1483 1484 1485 1486 1487 1488 1488 1489 1489
1475 1475 1474 1474 1474 1473 1473 1473 1473 1473 1473 1473 1473 1472 1472 1473 1473 1473 1473 1474 1474 1474 1475 1476 1476 1477 1477 1478 1478 1478 1478 1478 1478 1477 1477 1479 1479 1481 1481 1482 1483 1483 1484
1470 1470 1469 1469 1469 1468 1468 1467 1467 1467 1467 1467 1467 1467 1467 1467 1467 1467 1468 1468 1468 1468 1469 1469 1470 1471 1471 1472 1472 1472 1472 1472 1472 1472 1472 1473 1474 1475 1476 1476 1476 1477 1478
1465 1465 1464 1464 1464 1463 1462 1462 1462 1462 1461 1461 1461 1461 1461 1461 1461 1461 1462 1462 1462 1462 1462 1463 1464 1465 1465 1466 1466 1466 1467 1466 1467 1467 1467 1468 1468 1469 1470 1470 1471 1471 1471
1460 1460 1459 1458 1458 1457 1457 1456 1456 1456 1455 1455 1455 1454 1454 1455 1455 1456 1456 1456 1456 1456 1456 1457 1458 1459 1459 1460 1460 1461 1461 1461 1461 1461 1461 1462 1463 1464 1465 1466 1466 1465 1464
1455 1454 1454 1453 1452 1451 1451 1451 1450 1450 1449 1449 1449 1448 1448 1448 1449 1449 1450 1450 1450 1450 1450 1451 1451 1452 1453 1454 1454 1455 1455 1455 1456 1457 1456 1456 1458 1459 1460 1460 1460 1459 1458
1449 1448 1447 1447 1446 1446 1445 1445 1444 1444 1443 1442 1442 1441 1441 1441 1442 1443 1444 1444 1444 1444 1444 1445 1445 1446 1446 1447 1448 1448 1448 1448 1450 1451 1451 1451 1453 1454 1454 1454 1454 1453 1452
1443 1442 1441 1441 1440 1439 1439 1439 1438 1438 1437 1436 1436 1435 1435 1434 1436 1436 1437 1437 1437 1437 1438 1439 1439 1439 1440 1441 1442 1441 1441 1442 1443 1444 1445 1446 1447 1448 1449 1448 1448 1447 1444
1438 1437 1436 1435 1435 1434 1433 1433 1432 1431 1430 1430 1429 1429 1428 1428 1429 1430 1431 1432 1431 1431 1431 1432 1433 1433 1434 1435 1435 1435 1435 1435 1436 1436 1437 1438 1439 1440 1441 1441 1441 1440 1438
1433 1432 1431 1430 1429 1428 1427 1426 1425 1424 1424 1423 1422 1422 1422 1422 1422 1423 1424 1425 1425 1425 1425 1425 1425 1426 1427 1428 1429 1429 1428 1430 1430 1430 1430 1431 1431 1432 1432 1433 1434 1434 1433
1428 1426 1425 1424 1423 1422 1420 1419 1418 1418 1417 1416 1415 1415 1415 1415 1415 1416 1417 1418 1419 1419 1418 1418 1419 1420 1420 1421 1421 1422 1423 1423 1423 1423 1423 1422 1423 1423 1425 1426 1426 1427 1427
1423 1421 1420 1418 1417 1415 1414 1412 1411 1411 1410 1409 1409 1408 1408 1408 1409 1409 1410 1411 1412 1412 1412 1412 1412 1413 1413 1413 1414 1415 1415 1415 1415 1415 1415 1415 1415 1416 1417 1418 1419 1419 1420
1418 1416 1414 1412 1410 1409 1406 1405 1405 1404 1404 1403 1403 1402 1401 1401 1402 1403 1403 1404 1404 1405 1405 1405 1406 1406 1406 1406 1407 1407 1408 1408 1408 1408 1408 1408 1409 1409 1410 1411 1411 1412 1412
1414 1412 1410 1407 1404 1402 1401 1400 1399 1398 1398 1398 1397 1397 1396 1395 1395 1397 1397 1398 1398 1398 1398 1398 1399 1399 1399 1399 1399 1400 1400 1401 1401 1401 1401 1401 1402 1402 1402 1403 1404 1405 1405
1410 1408 1405 1403 1400 1398 1397 1395 1395 1394 1393 1393 1392 1392 1391 1391 1390 1390 1391 1392 1392 1392 1392 1391 1391 1392 1391 1392 1392 1392 1393 1393 1394 1394 1394 1395 1395 1395 1395 1396 1397 1398 1398
1408 1405 1402 1400 1397 1395 1393 1391 1389 1388 1388 1388 1387 1386 1385 1385 1384 1384 1384 1385 1386 1386 1386 1385 1385 1386 1386 1385 1386 1386 1386 1387 1387 1387 1388 1388 1389 1389 1389 1390 1390 1391 1391
1406 1403 1401 1398 1395 1393 1390 1389 1387 1384 1383 1381 1381 1381 1380 1379 1378 1378 1379 1380 1379 1379 1379 1379 1379 1380 1380 1379 1379 1379 1379 1380 1381 1381 1381 1382 1382 1383 1383 1383 1384 1384 1384
1404 1401 1399 1396 1394 1391 1389 1387 1385 1383 1380 1378 1376 1375 1375 1374 1373 1374 1374 1374 1373 1373 1374 1374 1374 1374 1374 1373 1373 1373 1373 1373 1374 1374 1375 1375 1376 1376 1376 1377 1377 1377 1378
1402 1400 1397 1394 1392 1389 1387 1385 1383 1380 1378 1376 1374 1372 1371 1370 1369 1369 1369 1369 1369 1369 1369 1369 1369 1369 1369 1368 1368 1367 1367 1367 1367 1368 1368 1369 1370 1370 1370 1370 1370 1370 1370
1400 1398 1396 1393 1390 1388 1386 1384 1381 1379 1376 1374 1372 1371 1369 1367 1366 1365 1365 1365 1365 1365 1364 1364 1364 1363 1363 1363 1363 1362 1361 1361 1361 1361 1362 1363 1363 1364 1364 1364 1364 1364 1364
1399 1396 1394 1391 1389 1387 1384 1382 1380 1378 1375 1372 1370 1368 1367 1365 1363 1362 1361 1361 1360 1360 1360 1359 1359 1359 1358 1358 1357 1356 1355 1355 1355 1355 1356 1356 1357 1357 1357 1357 1357 1357 1357
1397 1395 1392 1390 1388 1385 1383 1381 1378 1376 1373 1371 1369 1366 1364 1363 1361 1360 1359 1358 1357 1357 1356 1356 1355 1354 1354 1353 1352 1352 1351 1350 1350 1350 1350 1350 1350 1351 1351 1351 1350 1350 1350
1396 1394 1391 1389 1386 1384 1381 1379 1377 1374 1372 1369 1367 1365 1363 1361 1359 1358 1356 1355 1354 1353 1353 1352 1351 1350 1349 1349 1348 1347 1347 1346 1345 1345 1345 1345 1344 1344 1344 1344 1344 1344 1344
1395 1393 1390 1388 1386 1383 1380 1378 1375 1373 1371 1368 1366 1364 1362 1360 1358 1356 1354 1353 1352 1350 1349 1348 1347 1346 1345 1344 1343 1342 1342 1341 1340 1340 1339 1339 1339 1338 1338 1338 1337 1337 1338
1394 1391 1389 1387 1384 1382 1379 1377 1375 1372 1370 1368 1366 1364 1361 1359 1357 1355 1353 1351 1350 1348 1346 1345 1344 1343 1342 1341 1339 1338 1337 1336 1335 1335 1335 1334 1333 1333 1333 1332 1332 1332 1331